Weather in Novyy

Russia / Republic of Adygea     44°56′06″N   40°10′32″E
temp.,
°C
wind,
m/s
gust,
m/s
humid.,
%
clouds,
%
prec.,
mm/h
press.,
hPa
HPBL,
m
23 april, fri
fri2300:00+7wsw36921 0.0 1024101
03:00+6wsw33965 0.0 102557
06:00+6sw23952 0.0 102547
09:00+12wsw23740 0.0 1025503
12:00+16w33560 0.0 10241310
15:00+17wnw235312 0.0 10221548
18:00+15ne2267100 0.0 102134
21:00+12e3369100 0.0 102025
24 april, sat
sat2400:00+11se2274100 0.0 101927
03:00+11sse0175100 0.0 101911
06:00+10wsw1284100 0.0 101953
09:00+12ssw41173100 0.0 1019607
12:00+17wsw8116267 0.1 10191692
15:00+17w912637 0.4 10191812
18:00+13wnw698120 0.3 1021883
21:00+9nw3783100 0.3 1022151
25 april, sun
sun2500:00+8sw2282100 0.0 102322
03:00+7nnw1174100 0.0 102311
06:00+7ne2378100 0.0 102253
09:00+11ene456499 0.0 1021606
12:00+12ene6763100 0.0 1019931
15:00+13ne6869100 0.0 10171070
18:00+10ne61182100 0.1 1016505
21:00+9ne61186100 0.1 1016404
26 april, mon
mon2600:00+8ne5109192 0.2 1015399
03:00+8ne3792100 0.2 1014333
06:00+8ne2497100 1.6 1013198
09:00+8nnw1198100 6.6 101392
12:00+9wnw3397100 10.0 1014288
15:00+9nw3496100 14.8 1014365
18:00+9nw2394100 1.3 1015359
21:00+8nnw2596100 1.3 1017205
27 april, tue
tue2700:00+8wnw249499 0.0 1018154
03:00+5wnw23944 0.1 101833
06:00+4sw229783 0.0 101950
09:00+10wsw11785 0.0 1018623
12:00+14wsw236182 0.0 10171358
15:00+14sw236980 0.0 1016967
18:00+14w37732 0.3 1016370
21:00+9w5137784 0.3 1018350